Time,TemperatureF,DewpointF,PressureIn,WindDirection,WindDirectionDegrees,WindSpeedMPH,WindSpeedGustMPH,Humidity,HourlyPrecipIn,Conditions,Clouds,dailyrainin,SoftwareType,DateUTC
2013-06-11 00:02:00,68.0,-99.9,-100.00,North,-999,-999.0,-999.0,-999,0.00,,,-99.99,,2013-06-11 06:02:00,
2013-06-11 00:12:00,68.0,-99.9,-100.00,North,-999,-999.0,-999.0,-999,0.00,,,-99.99,,2013-06-11 06:12:00,
2013-06-11 00:22:00,68.0,-99.9,-100.00,North,-999,-999.0,-999.0,-999,0.00,,,-99.99,,2013-06-11 06:22:00,
2013-06-11 00:30:00,68.0,-99.9,-100.00,North,-999,-999.0,-999.0,-999,0.00,,,-99.99,,2013-06-11 06:30:00,
2013-06-11 01:02:00,68.0,-99.9,-100.00,North,-999,-999.0,-999.0,-999,0.00,,,-99.99,,2013-06-11 07:02:00,
2013-06-11 01:30:00,67.0,-99.9,-100.00,North,-999,-999.0,-999.0,-999,-99.99,,,-99.99,,2013-06-11 07:30:00,
2013-06-11 02:03:00,67.0,-99.9,-100.00,North,-999,-999.0,-999.0,-999,-99.99,,,-99.99,,2013-06-11 08:03:00,
2013-06-11 02:12:00,67.0,-99.9,-100.00,North,-999,-999.0,-999.0,-999,-99.99,,,-99.99,,2013-06-11 08:12:00,
2013-06-11 02:22:00,67.0,-99.9,-100.00,North,-999,-999.0,-999.0,-999,-99.99,,,-99.99,,2013-06-11 08:22:00,
2013-06-11 02:30:00,66.0,-99.9,-100.00,North,-999,-999.0,-999.0,-999,-99.99,,,-99.99,,2013-06-11 08:30:00,
2013-06-11 03:02:00,66.0,-99.9,-100.00,North,-999,-999.0,-999.0,-999,-99.99,,,-99.99,,2013-06-11 09:02:00,
2013-06-11 03:12:00,66.0,-99.9,-100.00,North,-999,-999.0,-999.0,-999,-99.99,,,-99.99,,2013-06-11 09:12:00,
2013-06-11 03:22:00,66.0,-99.9,-100.00,North,-999,-999.0,-999.0,-999,-99.99,,,-99.99,,2013-06-11 09:22:00,
2013-06-11 04:03:00,66.0,-99.9,-100.00,North,-999,-999.0,-999.0,-999,-99.99,,,-99.99,,2013-06-11 10:03:00,
2013-06-11 05:02:00,65.0,-99.9,-100.00,North,-999,-999.0,-999.0,-999,-99.99,,,-99.99,,2013-06-11 11:02:00,
2013-06-11 05:30:00,64.0,-99.9,-100.00,North,-999,-999.0,-999.0,-999,0.00,,,-99.99,,2013-06-11 11:30:00,
2013-06-11 06:02:00,64.0,-99.9,-100.00,North,-999,-999.0,-999.0,-999,0.00,,,-99.99,,2013-06-11 12:02:00,
2013-06-11 06:12:00,64.0,-99.9,-100.00,North,-999,-999.0,-999.0,-999,0.00,,,-99.99,,2013-06-11 12:12:00,
2013-06-11 06:22:00,64.0,-99.9,-100.00,North,-999,-999.0,-999.0,-999,0.00,,,-99.99,,2013-06-11 12:22:00,
2013-06-11 07:30:00,70.0,-99.9,-100.00,North,-999,-999.0,-999.0,-999,0.00,,,-99.99,,2013-06-11 13:30:00,
2013-06-11 08:02:00,70.0,-99.9,-100.00,North,-999,-999.0,-999.0,-999,0.00,,,-99.99,,2013-06-11 14:02:00,
2013-06-11 08:12:00,70.0,-99.9,-100.00,North,-999,-999.0,-999.0,-999,0.00,,,-99.99,,2013-06-11 14:12:00,
2013-06-11 08:22:00,70.0,-99.9,-100.00,North,-999,-999.0,-999.0,-999,0.00,,,-99.99,,2013-06-11 14:22:00,
2013-06-11 09:30:00,74.0,-99.9,-100.00,North,-999,-999.0,-999.0,-999,0.00,,,0.05,,2013-06-11 15:30:00,
2013-06-11 10:03:00,74.0,-99.9,-100.00,North,-999,-999.0,-999.0,-999,0.00,,,0.05,,2013-06-11 16:03:00,
2013-06-11 10:13:00,74.0,-99.9,-100.00,North,-999,-999.0,-999.0,-999,0.00,,,0.05,,2013-06-11 16:13:00,
2013-06-11 10:23:00,74.0,-99.9,-100.00,North,-999,-999.0,-999.0,-999,0.00,,,0.05,,2013-06-11 16:23:00,
2013-06-11 10:30:00,76.0,-99.9,-100.00,North,-999,-999.0,-999.0,-999,0.00,,,-99.99,,2013-06-11 16:30:00,
2013-06-11 11:12:00,76.0,-99.9,-100.00,North,-999,-999.0,-999.0,-999,0.00,,,-99.99,,2013-06-11 17:12:00,
2013-06-11 11:22:00,76.0,-99.9,-100.00,North,-999,-999.0,-999.0,-999,0.00,,,-99.99,,2013-06-11 17:22:00,
2013-06-11 11:30:00,78.0,-99.9,-100.00,North,-999,-999.0,-999.0,-999,0.00,,,-99.99,,2013-06-11 17:30:00,
2013-06-11 12:02:00,78.0,-99.9,-100.00,North,-999,-999.0,-999.0,-999,0.00,,,-99.99,,2013-06-11 18:02:00,
2013-06-11 12:12:00,78.0,-99.9,-100.00,North,-999,-999.0,-999.0,-999,0.00,,,-99.99,,2013-06-11 18:12:00,
2013-06-11 12:22:00,78.0,-99.9,-100.00,North,-999,-999.0,-999.0,-999,0.00,,,-99.99,,2013-06-11 18:22:00,
2013-06-11 12:30:00,79.0,-99.9,-100.00,North,-999,-999.0,-999.0,-999,0.00,,,-99.99,,2013-06-11 18:30:00,
2013-06-11 13:03:00,79.0,-99.9,-100.00,North,-999,-999.0,-999.0,-999,0.00,,,-99.99,,2013-06-11 19:03:00,
2013-06-11 13:13:00,79.0,-99.9,-100.00,North,-999,-999.0,-999.0,-999,0.00,,,-99.99,,2013-06-11 19:13:00,
2013-06-11 13:22:00,79.0,-99.9,-100.00,North,-999,-999.0,-999.0,-999,0.00,,,-99.99,,2013-06-11 19:22:00,
2013-06-11 13:30:00,79.0,-99.9,-100.00,North,-999,-999.0,-999.0,-999,0.00,,,0.00,,2013-06-11 19:30:00,
2013-06-11 14:03:00,79.0,-99.9,-100.00,North,-999,-999.0,-999.0,-999,0.00,,,0.00,,2013-06-11 20:03:00,
2013-06-11 14:12:00,79.0,-99.9,-100.00,North,-999,-999.0,-999.0,-999,0.00,,,0.00,,2013-06-11 20:12:00,
2013-06-11 14:22:00,79.0,-99.9,-100.00,North,-999,-999.0,-999.0,-999,0.00,,,0.00,,2013-06-11 20:22:00,
2013-06-11 14:30:00,80.0,-99.9,-100.00,North,-999,-999.0,-999.0,-999,0.00,,,0.00,,2013-06-11 20:30:00,
2013-06-11 15:12:00,80.0,-99.9,-100.00,North,-999,-999.0,-999.0,-999,0.00,,,0.00,,2013-06-11 21:12:00,
2013-06-11 15:23:00,80.0,-99.9,-100.00,North,-999,-999.0,-999.0,-999,0.00,,,0.00,,2013-06-11 21:23:00,
2013-06-11 15:30:00,81.0,-99.9,-100.00,North,-999,-999.0,-999.0,-999,0.00,,,-99.99,,2013-06-11 21:30:00,
2013-06-11 16:13:00,81.0,-99.9,-100.00,North,-999,-999.0,-999.0,-999,0.00,,,-99.99,,2013-06-11 22:13:00,
2013-06-11 16:23:00,81.0,-99.9,-100.00,North,-999,-999.0,-999.0,-999,0.00,,,-99.99,,2013-06-11 22:23:00,
2013-06-11 16:30:00,80.0,-99.9,-100.00,North,-999,-999.0,-999.0,-999,0.00,,,0.00,,2013-06-11 22:30:00,
2013-06-11 17:12:00,80.0,-99.9,-100.00,North,-999,-999.0,-999.0,-999,0.00,,,0.00,,2013-06-11 23:12:00,
2013-06-11 17:22:00,80.0,-99.9,-100.00,North,-999,-999.0,-999.0,-999,0.00,,,0.00,,2013-06-11 23:22:00,
2013-06-11 17:30:00,79.0,-99.9,-100.00,North,-999,-999.0,-999.0,-999,0.00,,,0.00,,2013-06-11 23:30:00,
2013-06-11 18:12:00,79.0,-99.9,-100.00,North,-999,-999.0,-999.0,-999,0.00,,,0.00,,2013-06-12 00:12:00,
2013-06-11 18:22:00,79.0,-99.9,-100.00,North,-999,-999.0,-999.0,-999,0.00,,,0.00,,2013-06-12 00:22:00,
2013-06-11 18:30:00,77.0,-99.9,-100.00,North,-999,-999.0,-999.0,-999,0.00,,,-99.99,,2013-06-12 00:30:00,
2013-06-11 19:03:00,77.0,-99.9,-100.00,North,-999,-999.0,-999.0,-999,0.00,,,-99.99,,2013-06-12 01:03:00,
2013-06-11 19:13:00,77.0,-99.9,-100.00,North,-999,-999.0,-999.0,-999,0.00,,,-99.99,,2013-06-12 01:13:00,
2013-06-11 19:22:00,77.0,-99.9,-100.00,North,-999,-999.0,-999.0,-999,0.00,,,-99.99,,2013-06-12 01:22:00,
2013-06-11 19:30:00,76.0,-99.9,-100.00,North,-999,-999.0,-999.0,-999,0.00,,,0.00,,2013-06-12 01:30:00,
2013-06-11 20:12:00,76.0,-99.9,-100.00,North,-999,-999.0,-999.0,-999,0.00,,,0.00,,2013-06-12 02:12:00,
2013-06-11 20:22:00,76.0,-99.9,-100.00,North,-999,-999.0,-999.0,-999,0.00,,,0.00,,2013-06-12 02:22:00,
2013-06-11 20:30:00,74.0,-99.9,-100.00,North,-999,-999.0,-999.0,-999,-99.99,,,0.00,,2013-06-12 02:30:00,
2013-06-11 21:12:00,74.0,-99.9,-100.00,North,-999,-999.0,-999.0,-999,-99.99,,,0.00,,2013-06-12 03:12:00,
2013-06-11 21:22:00,74.0,-99.9,-100.00,North,-999,-999.0,-999.0,-999,-99.99,,,0.00,,2013-06-12 03:22:00,
2013-06-11 22:03:00,72.0,-99.9,-100.00,North,-999,-999.0,-999.0,-999,0.00,,,0.00,,2013-06-12 04:03:00,
2013-06-11 23:12:00,70.0,-99.9,-100.00,North,-999,-999.0,-999.0,-999,-99.99,,,0.01,,2013-06-12 05:12:00,
2013-06-11 23:22:00,70.0,-99.9,-100.00,North,-999,-999.0,-999.0,-999,-99.99,,,0.01,,2013-06-12 05:22:00,